Lamoni, IA

4:42 AM CST on February 12, 2016 (GMT -0600)
Lamoni Municipal

Weather History for KLWD - October, 2011

Change the Weather History Date:

Saturday, October 8, 2011

  Actual Average Record
Temperature  
Mean Temperature 71 °F 56 °F  
Max Temperature 82 °F 67 °F 84 °F (1949)
Min Temperature 60 °F 45 °F 24 °F (2000)
Degree Days  
Heating Degree Days 0 10  
Month to date heating degree days 23 69  
Since 1 July heating degree days 186 169  
Cooling Degree Days 6 1  
Month to date cooling degree days 20 8  
Year to date cooling degree days 1141 941  
Growing Degree Days 22 (Base 50)    
Moisture  
Dew Point 53 °F    
Average Humidity 56    
Maximum Humidity 72    
Minimum Humidity 39    
Precipitation  
Precipitation 0.00 in 0.09 in 1.59 in (1982)
Month to date precipitation 0.00 0.53  
Year to date precipitation 29.00  
Sea Level Pressure  
Sea Level Pressure 30.11 in    
Wind  
Wind Speed 11 mph (SSE)    
Max Wind Speed 22 mph    
Max Gust Speed 30 mph    
Visibility 10 miles    
Events      
T = Trace of Precipitation, MM = Missing Value Source: NWS Daily Summary

Daily Weather History Graph

Daily Weather History Graph

Search for Another Location

Airport or City:

Trip Planner

Search our weather history database for the weather conditions in past years. The results will help you decide how hot, cold, wet, or windy it might be!

Date:

Astronomy

Oct. 08, 2011 Rise Set
Actual Time 7:19 AM CDT 6:46 PM CDT
Civil Twilight 6:51 AM CDT 7:13 PM CDT
Nautical Twilight 6:20 AM CDT 7:45 PM CDT
Astronomical Twilight 5:48 AM CDT 8:17 PM CDT
Moon 4:58 PM CDT (10/8) 4:06 AM CDT (10/8)
Length of Visible Light 12h 22m
Length of Day
11h 27m
Waxing Gibbous, 90% of the Moon is Illuminated
Oct 8
Waxing Gibbous
Oct 11
Full
Oct 19
Last Quarter
Oct 26
New
Nov 2
First Quarter

Hourly Weather History & Observations

Time (CDT) Temp. Heat Index Dew Point Humidity Pressure Visibility Wind Dir Wind Speed Gust Speed Precip Events Conditions
12:53 AM 66.0 °F - 50.0 °F 56% 30.07 in 10.0 mi South 9.2 mph - N/A   Clear
2:53 AM 64.0 °F - 50.0 °F 60% 30.08 in 10.0 mi SSE 8.1 mph - N/A   Clear
3:53 AM 63.0 °F - 50.0 °F 63% 30.08 in 10.0 mi SSE 9.2 mph - N/A   Clear
4:53 AM 62.1 °F - 51.1 °F 67% 30.09 in 10.0 mi SSE 8.1 mph - N/A   Clear
8:53 AM 64.9 °F - 53.1 °F 65% 30.14 in 10.0 mi South 13.8 mph 20.7 mph N/A   Mostly Cloudy
9:53 AM 69.1 °F - 55.0 °F 61% 30.14 in 10.0 mi South 10.4 mph 19.6 mph N/A   Clear
10:53 AM 73.9 °F - 55.9 °F 53% 30.14 in 10.0 mi South 18.4 mph 27.6 mph N/A   Clear
11:53 AM 75.0 °F - 57.9 °F 55% 30.14 in 10.0 mi South 18.4 mph 25.3 mph N/A   Scattered Clouds
1:53 PM 79.0 °F - 59.0 °F 50% 30.12 in 10.0 mi SSW 11.5 mph - N/A   Mostly Cloudy
2:53 PM 81.0 °F 81.1 °F 57.9 °F 45% 30.09 in 10.0 mi South 12.7 mph - N/A   Scattered Clouds
3:53 PM 81.0 °F 81.0 °F 57.0 °F 44% 30.07 in 10.0 mi SSE 12.7 mph 21.9 mph N/A   Partly Cloudy
4:53 PM 81.0 °F 80.5 °F 54.0 °F 39% 30.07 in 10.0 mi SE 13.8 mph 21.9 mph N/A   Partly Cloudy
5:53 PM 79.0 °F - 53.1 °F 40% 30.08 in 10.0 mi SSE 12.7 mph 23.0 mph N/A   Clear
6:53 PM 75.0 °F - 50.0 °F 41% 30.09 in 10.0 mi SE 8.1 mph - N/A   Clear
7:53 PM 72.0 °F - 52.0 °F 49% 30.11 in 10.0 mi SE 8.1 mph - N/A   Clear
9:53 PM 68.0 °F - 52.0 °F 56% 30.14 in 10.0 mi SSE 8.1 mph - N/A   Clear
10:53 PM 66.0 °F - 50.0 °F 56% 30.14 in 10.0 mi SSE 8.1 mph - N/A   Clear
11:53 PM 66.0 °F - 50.0 °F 56% 30.15 in 10.0 mi SSE 6.9 mph - N/A   Clear